Home   Weather   Randers   Past weeks

Flag for Denmark Past Weather in Randers, Denmark — Yesterday and Last 2 Weeks

Now
36 °F

Fog.


Feels Like: 36 °F
Forecast: 37 / 53 °F
Wind: No wind

Location: Tirstrup

Current Time: Apr 30, 2017 at 7:46:23 am

Latest Report: Apr 30, 2017 at 6:50 am


Visibility: 1 mi

Pressure: 30.21 "Hg

Humidity: 93%

Dew Point: 34 °F

Location of RandersLocation

Past Weather in Randers — Graph

°F

Randers Temperature Yesterday

Maximum temperature yesterday: 48 °F (at 3:20 pm)
Minimum temperature yesterday: 36 °F (at 11:50 pm)
Average temperature yesterday: 43 °F

High & Low Weather Summary for the Past Weeks

 TemperatureHumidityPressure
High54 °F (Apr 22, 2:50 pm)100% (Apr 17, 7:50 am)30.63 "Hg (Apr 17, 7:50 am)
Low28 °F (Apr 19, 12:20 am)30% (Apr 22, 5:50 pm)29.50 "Hg (Apr 25, 5:50 am)
Average41 °F72%29.99 "Hg
* Reported Apr 15 6:20 am — Apr 30 6:20 am, Randers, Weather by CustomWeather, © 2017

Note: Actual official high and low records may vary slightly from our data, if they occured in-between our weather recording intervals... More about our weather records

Advertising

Randers Weather History for the Previous 24 Hours

Scroll right to see more
 ConditionsComfort  
Time TempWeatherWind HumidityBarometerVisibility
6:20 am
Sun, Apr 30
36 °FPartly sunny.No wind93%30.21 "Hg0 mi
5:50 am34 °FIce fog.1 mph93%30.21 "Hg1 mi
5:20 am36 °FIce fog.No wind93%30.18 "Hg0 mi
4:50 am37 °FFog.3 mph87%30.18 "Hg2 mi
4:20 am37 °FFog.3 mph93%30.18 "Hg3 mi
3:50 am37 °FIce fog.1 mph93%30.18 "Hg1 mi
3:20 am37 °FIce fog.1 mph87%30.18 "Hg1 mi
2:50 am37 °FFog.2 mph87%30.18 "Hg1 mi
2:20 am37 °FChilly.3 mph87%30.18 "HgN/A
1:50 am37 °FPassing clouds.5 mph87%30.18 "HgN/A
1:20 am34 °FFog.3 mph87%30.18 "Hg2 mi
12:50 am34 °FChilly.No wind87%30.18 "HgN/A
12:20 am36 °FIce fog.No wind81%30.18 "Hg0 mi
11:50 pm
Sat, Apr 29
36 °FLight fog.No wind87%30.15 "Hg2 mi
11:20 pm37 °FChilly.No wind81%30.15 "Hg3 mi
10:50 pm37 °FChilly.No wind81%30.15 "Hg4 mi
10:20 pm39 °FChilly.No wind75%30.15 "HgN/A
9:50 pm41 °FQuite cool.No wind76%30.15 "HgN/A
9:20 pm43 °FQuite cool.No wind71%30.15 "HgN/A
8:50 pm46 °FCool.2 mph66%30.12 "HgN/A
8:20 pm48 °FCool.5 mph58%30.12 "HgN/A
7:50 pm48 °FCool.6 mph58%30.12 "HgN/A
7:20 pm48 °FCool.6 mph54%30.12 "HgN/A
6:50 pm48 °FCool.9 mph54%30.12 "HgN/A
6:20 pm48 °FPassing clouds.8 mph54%30.12 "HgN/A
5:50 pm48 °FCool.8 mph58%30.12 "HgN/A
5:20 pm48 °FPassing clouds.8 mph58%30.09 "HgN/A
4:50 pm48 °FPartly sunny.9 mph62%30.09 "HgN/A
4:20 pm48 °FScattered clouds.9 mph62%30.09 "HgN/A
3:50 pm46 °FScattered clouds.9 mph62%30.09 "HgN/A
3:20 pm48 °FPartly sunny.9 mph62%30.09 "HgN/A
2:50 pm46 °FScattered clouds.10 mph62%30.09 "HgN/A
2:20 pm46 °FPartly sunny.9 mph66%30.07 "HgN/A
1:50 pm46 °FPartly sunny.9 mph66%30.07 "HgN/A
1:20 pm46 °FPartly sunny.12 mph66%30.07 "HgN/A
12:50 pm46 °FPartly sunny.10 mph66%30.07 "HgN/A
12:20 pm46 °FPartly sunny.13 mph66%30.04 "HgN/A
11:50 am45 °FPartly sunny.14 mph71%30.04 "HgN/A
11:20 am43 °FPartly sunny.15 mph76%30.04 "HgN/A
10:50 am43 °FOvercast.14 mph76%30.04 "HgN/A
10:20 am43 °FOvercast.15 mph76%30.04 "HgN/A
9:50 am43 °FOvercast.14 mph81%30.01 "HgN/A
9:20 am41 °FSprinkles. Overcast.14 mph87%30.01 "HgN/A
8:50 am41 °FSprinkles. Overcast.14 mph87%30.01 "HgN/A
8:20 am41 °FPartly sunny.15 mph87%29.98 "HgN/A
7:50 am41 °FLight rain. Overcast.14 mph87%29.98 "HgN/A
7:20 am41 °FLight rain. Partly sunny.8 mph87%29.98 "HgN/A
Weather by CustomWeather, © 2017

See weather overviewHow to use our weather pages